Content
SEND FEEDBACK

Daily
Averages
Monthly
Summary
Mexico

PUERTO MORELOS, QUINTANA ROO


Home > North America > Mexico > Quintana Roo
Elevation: 20 feet     Latitude: 20 51N     Longitude: 086 52W

WEATHER
 
SELECT A DAY
Number of Records: 166,572;   Date Range: 1/1/95 - 10/29/14
 
SHARE

PRINT THIS DATA

[ ← Previous Day ]
WEATHER ALMANAC - SEPTEMBER 15, 2013
[ Next Day → ]
[ °C ]   °F
Weather ElementAverageHighLow
Temperature79.3 °F86 °F (1:41 pm)75.2 °F (2:24 pm)
Dewpoint71.7 °F77 °F (12:43 pm)35.6 °F (2:24 pm)
Humidity80.5 %94 % (6:43 am)22 % (8:23 pm)
Barometer29.89 in29.94 in (9:41 am)29.82 in (3:46 am)
Wind Speed9.7 mph25.3 mph (2:07 pm)
Weather ElementAverage
Visibility5.6 mi
Wind DirectionESE (121.8 °)

Weather ElementTotal
Precipitation---
Cooling Degree Days15.6 (Base 65)
Growing Degree Days30.6 (Base 50)
Averaged from 28 records on September 15, 2013
WEATHER CONDITIONS BREAKOUT
WIND DIRECTION BREAKOUT
WEATHER BY HOUR - SEPTEMBER 15, 2013
[ °C ]   °F
Local TimeTemperatureDewpointHumidityBarometerVisibilityWind DirectionWind SpeedGust SpeedPrecipitationEventsConditions
1:44 AM78.8 °F75.2 °F89 %29.87 in6.0 miESE (120°)8.1 mphOvercast
2:43 AM78.8 °F75.2 °F89 %29.85 in6.0 miEast (100°)6.9 mphOvercast
3:46 AM78.8 °F75.2 °F89 %29.82 in6.0 miEast (100°)6.9 mphOvercast
4:45 AM78.8 °F75.2 °F89 %29.84 in6.0 miEast (100°)5.8 mphOvercast
5:44 AM78.8 °F75.2 °F89 %29.84 in6.0 miESE (110°)5.8 mphOvercast
6:43 AM77.0 °F75.2 °F94 %29.85 in6.0 miSE (140°)21.9 mphRainLight Rain
7:45 AM78.8 °F73.4 °F83 %29.90 in6.0 miSE (130°)12.7 mphOvercast
8:44 AM80.6 °F73.4 °F79 %29.92 in6.0 miESE (120°)11.5 mphOvercast
9:41 AM82.4 °F75.2 °F79 %29.94 in6.0 miEast (100°)10.4 mphOvercast
10:41 AM82.4 °F75.2 °F79 %29.94 in6.0 miEast (100°)11.5 mphOvercast
11:42 AM82.4 °F75.2 °F79 %29.94 in5.0 miESE (110°)9.2 mphOvercast
12:43 PM84.2 °F77.0 °F79 %29.94 in7.0 miEast (100°)11.5 mphMostly Cloudy
1:41 PM86.0 °F77.0 °F74 %29.90 in7.0 miEast (90°)12.7 mphMostly Cloudy
2:07 PM77.0 °F73.4 °F89 %29.89 in2.0 miESE (120°)25.3 mphRainHeavy Rain
2:24 PM75.2 °F35.6 °F24 %29.87 in4.0 miESE (120°)16.1 mphRainLight Rain
2:41 PM77.0 °F71.6 °F83 %29.85 in6.0 miESE (110°)9.2 mphOvercast
3:41 PM82.4 °F71.6 °F70 %29.85 in6.0 miSE (130°)16.1 mphMostly Cloudy
4:40 PM82.4 °F73.4 °F74 %29.85 in6.0 miESE (110°)9.2 mphOvercast
5:43 PM80.6 °F73.4 °F79 %29.87 in7.0 miESE (110°)5.8 mphOvercast
6:42 PM80.6 °F75.2 °F84 %29.89 in7.0 miEast (80°)3.5 mphOvercast
7:42 PM78.8 °F73.4 °F83 %29.89 in7.0 miNNE (20°)2.3 mphMostly Cloudy
8:15 PM77.0 °F73.4 °F89 %29.90 in3.0 miWest (260°)5.8 mphRainRain
8:23 PM77.0 °F35.6 °F22 %29.91 in5.0 miSSE (160°)2.3 mphRainLight Rain
8:40 PM78.8 °F75.2 °F89 %29.91 in6.0 miNorth (360°)2.3 mphMostly Cloudy
9:21 PM77.0 °F75.2 °F94 %29.92 in5.0 miEast (100°)8.1 mphRainLight Rain
9:45 PM77.0 °F75.2 °F94 %29.92 in6.0 miENE (70°)2.3 mphMostly Cloudy
10:40 PM75.2 °F73.4 °F94 %29.94 in4.0 miSSE (150°)21.9 mphRainRain
11:40 PM75.2 °F73.4 °F94 %29.94 in5.0 miEast (90°)6.9 mphRainLight Rain
Hourly data recorded from MMUN, located miles away from Puerto Morelos, Quintana Roo







STORIES FROM OUR PARTNERS